Flag for South Africa Weather past 2 weeks in Cape Town, South Africa

Now
66 °F

Sunny.


Feels Like: 66 °F
Forecast: 64 / 75 °F
Wind: 12 mph from South

Location: Cape Town International Airport


UV Index: 3 (Moderate)

Visibility: 10 mi


Pressure: 30.12 "Hg

Humidity: 73%

Dew point: 57 °F

Location of Cape TownLocation

Historic Weather in Cape Town

°F

Cape Town temperature yesterday

Maximum temperature yesterday: 73 °F (at 1:00 PM)
Minimum temperature yesterday: 59 °F (at 7:00 AM)
Average temperature yesterday: 66 °F

Past Weeks' High & Low Weather Summary

 TemperatureHumidityPressure
High97 °F (Apr 11, 1:00 PM)94% (Apr 8, 9:00 AM)30.24 "Hg (Apr 8, 9:00 AM)
Low50 °F (Apr 16, 6:00 AM)22% (Apr 12, 1:00 PM)29.89 "Hg (Apr 17, 3:00 PM)
Average70 °F62%30.06 "Hg
* Reported Apr 4 9:00 AM — Apr 19 9:00 AM, Cape Town, Weather by CustomWeather, © 2014

Note: Actual official high and low records may vary slightly from our data, if they occured in-between our weather recording intervals... More about our weather records

Advertising

Historic Weather Conditions — Data for Previous 24 hours

 ConditionsComfort  
Time TempWeatherWind HumidityBarometerVisibility
9:00 AM
Apr 19
66 °FSunny.12 mph73%30.12 "Hg10 mi
8:00 AM64 °FSunny.14 mph73%30.09 "Hg10 mi
7:00 AM61 °FSunny.7 mph83%30.09 "Hg10 mi
6:00 AM63 °FPassing clouds.12 mph77%30.07 "HgN/A
5:00 AM63 °FPassing clouds.9 mph77%30.07 "HgN/A
4:00 AM63 °FClear.12 mph77%30.07 "Hg10 mi
3:00 AM63 °FClear.12 mph83%30.07 "Hg10 mi
2:00 AM64 °FClear.12 mph78%30.07 "Hg10 mi
1:00 AM63 °FClear.13 mph83%30.07 "Hg10 mi
12:00 AM63 °FPassing clouds.10 mph83%30.09 "HgN/A
11:00 PM
Apr 18
64 °FPassing clouds.12 mph78%30.09 "HgN/A
10:00 PM64 °FPassing clouds.12 mph78%30.07 "HgN/A
9:00 PM64 °FPassing clouds.16 mph78%30.07 "HgN/A
8:00 PM64 °FPassing clouds.16 mph83%30.07 "HgN/A
7:00 PM66 °FPassing clouds.17 mph78%30.07 "HgN/A
6:00 PM68 °FPassing clouds.20 mph73%30.07 "HgN/A
5:00 PM70 °FPassing clouds.23 mph69%30.04 "HgN/A
4:00 PM70 °FPassing clouds.21 mph73%30.04 "HgN/A
3:00 PM73 °FPassing clouds.20 mph61%30.04 "HgN/A
2:00 PM73 °FPassing clouds.21 mph57%30.04 "HgN/A
1:00 PM73 °FPassing clouds.17 mph57%30.04 "HgN/A
12:00 PM72 °FScattered clouds.15 mph61%30.07 "HgN/A
11:00 AM70 °FScattered clouds.14 mph69%30.07 "HgN/A
10:00 AM68 °FPartly sunny.12 mph78%30.07 "HgN/A
Weather by CustomWeather, © 2014

See weather overview